QXE272 KATL-KMEM

Flight info

Callsign QXE272
Flight time N/A
Altitude 30000
Route NASSA2 CHOOK WASER VANZE3
Aircraft E75L/M-SDE3GILORVW/S

Departure

Time 2026-05-04 22:34
Airport Hartsfield Jackson Atlanta International Airport (KATL)

Arrival

Time N/A
Airport Memphis International Airport (KMEM)
Time Latitude Longitude Altitude Speed Heading
2026-05-04 22:09 33.64145 -84.44191 1004 ft 0 kts 256°
2026-05-04 22:20 33.64149 -84.44174 1004 ft 2 kts 257°
2026-05-04 22:20 33.64152 -84.44154 1004 ft 2 kts 261°
2026-05-04 22:21 33.64153 -84.44142 1004 ft 2 kts 265°
2026-05-04 22:21 33.64152 -84.44122 1004 ft 2 kts 290°
2026-05-04 22:21 33.64140 -84.44113 1004 ft 1 kts
2026-05-04 22:25 33.64141 -84.44113 1004 ft 1 kts
2026-05-04 22:25 33.64158 -84.44113 1004 ft 4 kts 359°
2026-05-04 22:25 33.64193 -84.44114 1004 ft 7 kts 359°
2026-05-04 22:25 33.64249 -84.44115 1004 ft 9 kts 359°
2026-05-04 22:26 33.64318 -84.44112 1004 ft 9 kts
2026-05-04 22:26 33.64341 -84.44113 1004 ft 0 kts 358°
2026-05-04 22:26 33.64352 -84.44114 1004 ft 5 kts 355°
2026-05-04 22:27 33.64392 -84.44107 1004 ft 7 kts 28°
2026-05-04 22:27 33.64419 -84.44055 1004 ft 9 kts 78°
2026-05-04 22:27 33.64429 -84.43971 1004 ft 12 kts 82°
2026-05-04 22:27 33.64442 -84.43866 1004 ft 14 kts 82°
2026-05-04 22:28 33.64454 -84.43745 1004 ft 15 kts 84°
2026-05-04 22:28 33.64459 -84.43610 1004 ft 17 kts 90°
2026-05-04 22:28 33.64459 -84.43459 1004 ft 19 kts 88°
2026-05-04 22:28 33.64461 -84.43290 1004 ft 21 kts 88°
2026-05-04 22:29 33.64459 -84.43108 1004 ft 21 kts 91°
2026-05-04 22:29 33.64460 -84.42930 1004 ft 22 kts 91°
2026-05-04 22:29 33.64464 -84.42748 1004 ft 19 kts 84°
2026-05-04 22:29 33.64469 -84.42584 1004 ft 21 kts 89°
2026-05-04 22:30 33.64469 -84.42402 1004 ft 23 kts 90°
2026-05-04 22:30 33.64487 -84.42236 1004 ft 21 kts 61°
2026-05-04 22:30 33.64542 -84.42079 1004 ft 13 kts 88°
2026-05-04 22:30 33.64547 -84.41960 1004 ft 15 kts 89°
2026-05-04 22:31 33.64542 -84.41824 1004 ft 18 kts 91°
2026-05-04 22:31 33.64543 -84.41673 1005 ft 18 kts 89°
2026-05-04 22:31 33.64543 -84.41509 1005 ft 21 kts 90°
2026-05-04 22:31 33.64543 -84.41329 1005 ft 23 kts 91°
2026-05-04 22:32 33.64545 -84.41131 1004 ft 23 kts 90°
2026-05-04 22:32 33.64543 -84.40944 1004 ft 24 kts 91°
2026-05-04 22:32 33.64566 -84.40780 1004 ft 15 kts 73°
2026-05-04 22:32 33.64571 -84.40660 1003 ft 15 kts 90°
2026-05-04 22:33 33.64626 -84.40572 1002 ft 17 kts 355°
2026-05-04 22:33 33.64679 -84.40639 1001 ft 8 kts 271°
2026-05-04 22:33 33.64680 -84.40766 1002 ft 40 kts 270°
2026-05-04 22:33 33.64679 -84.41461 1007 ft 125 kts 271°
2026-05-04 22:34 33.64666 -84.42729 1425 ft 169 kts 269°
2026-05-04 22:34 33.64731 -84.44233 2043 ft 199 kts 272°
2026-05-04 22:34 33.64856 -84.46057 2669 ft 239 kts 275°
2026-05-04 22:34 33.65096 -84.48131 3283 ft 254 kts 278°
2026-05-04 22:35 33.65488 -84.50222 3884 ft 260 kts 282°
2026-05-04 22:35 33.65965 -84.52332 4494 ft 262 kts 283°
2026-05-04 22:35 33.66420 -84.54413 5108 ft 263 kts 282°
2026-05-04 22:35 33.66835 -84.56579 5799 ft 264 kts 279°
2026-05-04 22:36 33.67209 -84.58726 6551 ft 267 kts 279°
2026-05-04 22:36 33.67578 -84.60929 7279 ft 269 kts 279°
2026-05-04 22:36 33.67946 -84.63143 8009 ft 273 kts 279°
2026-05-04 22:36 33.68322 -84.65379 8750 ft 275 kts 279°
2026-05-04 22:37 33.68706 -84.67643 9518 ft 277 kts 279°
2026-05-04 22:37 33.69090 -84.69916 10278 ft 278 kts 278°
2026-05-04 22:37 33.69476 -84.72211 10932 ft 285 kts 279°
2026-05-04 22:37 33.69875 -84.74559 10972 ft 292 kts 279°
2026-05-04 22:38 33.70144 -84.77135 11040 ft 328 kts 271°
2026-05-04 22:38 33.70221 -84.79951 11101 ft 343 kts 269°
2026-05-04 22:38 33.70215 -84.82831 10932 ft 343 kts 267°
2026-05-04 22:38 33.70160 -84.85626 11511 ft 341 kts 267°
2026-05-04 22:39 33.70106 -84.88500 12106 ft 348 kts 267°
2026-05-04 22:39 33.70063 -84.91228 12698 ft 352 kts 268°
2026-05-04 22:39 33.70034 -84.94194 13345 ft 356 kts 268°
2026-05-04 22:39 33.70039 -84.97162 14162 ft 358 kts 269°
2026-05-04 22:40 33.70068 -85.00048 14970 ft 360 kts 270°
2026-05-04 22:40 33.70094 -85.03115 15842 ft 363 kts 269°
2026-05-04 22:40 33.70092 -85.06156 16728 ft 365 kts 268°
2026-05-04 22:40 33.70069 -85.09214 17633 ft 368 kts 268°
2026-05-04 22:41 33.70043 -85.12263 18528 ft 370 kts 268°
2026-05-04 22:41 33.70016 -85.15389 19351 ft 373 kts 268°
2026-05-04 22:41 33.69980 -85.18472 20183 ft 375 kts 268°
2026-05-04 22:41 33.69951 -85.21606 21041 ft 376 kts 269°
2026-05-04 22:42 33.69931 -85.24740 21924 ft 374 kts 269°
2026-05-04 22:42 33.69903 -85.27864 22816 ft 372 kts 269°
2026-05-04 22:42 33.69861 -85.30934 23710 ft 368 kts 269°
2026-05-04 22:42 33.69809 -85.34002 24441 ft 365 kts 269°
2026-05-04 22:43 33.69764 -85.37035 25242 ft 362 kts 269°
2026-05-04 22:43 33.69724 -85.40007 26056 ft 359 kts 269°
2026-05-04 22:43 33.69688 -85.42957 26905 ft 354 kts 270°
2026-05-04 22:43 33.69655 -85.45884 27810 ft 347 kts 270°
2026-05-04 22:44 33.69621 -85.48720 28688 ft 339 kts 270°
2026-05-04 22:44 33.69585 -85.51529 29607 ft 332 kts 270°
2026-05-04 22:44 33.69549 -85.54313 29974 ft 342 kts 270°
2026-05-04 22:44 33.69512 -85.57246 30010 ft 358 kts 270°
2026-05-04 22:45 33.69472 -85.60295 30051 ft 372 kts 270°
2026-05-04 22:45 33.69384 -85.66722 30009 ft 402 kts 270°
2026-05-04 22:45 33.69337 -85.70099 30043 ft 413 kts 270°
2026-05-04 22:46 33.69287 -85.73572 29993 ft 425 kts 270°
2026-05-04 22:46 33.69233 -85.77143 30023 ft 435 kts 270°
2026-05-04 22:46 33.69120 -85.84434 30016 ft 438 kts 270°
2026-05-04 22:47 33.69006 -85.91731 30007 ft 438 kts 270°
2026-05-04 22:47 33.68888 -85.99003 30005 ft 438 kts 270°
2026-05-04 22:48 33.69179 -86.06210 30031 ft 438 kts 282°
2026-05-04 22:48 33.70377 -86.13281 29991 ft 438 kts 281°
2026-05-04 22:49 33.71609 -86.20409 30000 ft 438 kts 282°
2026-05-04 22:49 33.72923 -86.27539 30006 ft 438 kts 282°
2026-05-04 22:50 33.74217 -86.34653 30007 ft 438 kts 282°
2026-05-04 22:50 33.75462 -86.41766 30007 ft 438 kts 282°
2026-05-04 22:51 33.76744 -86.48889 29998 ft 438 kts 282°
2026-05-04 22:51 33.78003 -86.56024 30015 ft 438 kts 282°
2026-05-04 22:52 33.79247 -86.63107 30028 ft 433 kts 282°
2026-05-04 22:52 33.80491 -86.70183 30000 ft 438 kts 282°
2026-05-04 22:53 33.81749 -86.77360 30010 ft 439 kts 282°
2026-05-04 22:53 33.82995 -86.84509 30011 ft 439 kts 282°
2026-05-04 22:54 33.84258 -86.91689 30004 ft 439 kts 282°
2026-05-04 22:54 33.85514 -86.98804 29989 ft 430 kts 282°
2026-05-04 22:55 33.86698 -87.05873 29994 ft 432 kts 282°
2026-05-04 22:55 33.87896 -87.12924 29967 ft 432 kts 282°
2026-05-04 22:56 33.89112 -87.20011 29996 ft 432 kts 282°
2026-05-04 22:56 33.90300 -87.27037 29999 ft 432 kts 282°
2026-05-04 22:57 33.91510 -87.34137 30002 ft 431 kts 282°
2026-05-04 22:57 33.92701 -87.41151 30031 ft 428 kts 282°
2026-05-04 22:58 33.94655 -87.47863 30035 ft 435 kts 298°
2026-05-04 22:58 33.97598 -87.54259 29989 ft 436 kts 297°
2026-05-04 22:59 34.00604 -87.60617 29969 ft 436 kts 298°
2026-05-04 22:59 34.03662 -87.66919 29953 ft 436 kts 298°
2026-05-04 23:00 34.06685 -87.73240 29957 ft 428 kts 298°
2026-05-04 23:00 34.09699 -87.79415 29962 ft 429 kts 299°
2026-05-04 23:01 34.12673 -87.85573 29943 ft 429 kts 298°
2026-05-04 23:01 34.15609 -87.91829 29955 ft 429 kts 298°
2026-05-04 23:02 34.17065 -87.94969 29727 ft 419 kts 298°
2026-05-04 23:02 34.18457 -87.97932 29463 ft 393 kts 298°